Showing default

KUIPER-00034, 63747

Orbit data source: Space-Track

KUIPER-00034, 63747 is a payload satellite owned by Kuiper Systems (US) in LEO that was launched on Mon, 28 Apr 2025 UTC via an ATLAS V 551 launch vehicle from the Air Force Eastern Test Range (AFETR). Payload-class satellites include a variety of spacecraft equipped with specific instruments for various scientific and technological missions. These include communications satellites like Starlink; space stations such as the ISS; scientific satellites like the Hubble; Earth observation satellites from companies like Planet Labs, Umbra, and HawkEye 360; GPS; miniature CubeSats for education and research; and military/defense satellites.

Loading next visibility...
Identifier
63747, 2025-088Z
Orbit
LEO
Country
Flag of USUS
Related business
Manufacturer
Kuiper Systems
Mission
Operational Commercial Communications
Bus & Motor
KUIPER, Unknown motor
Mass
~490 kg wet, ~490 kg dry
Launch date (UTC)
2025-04-28 (8 months ago)
Launch vehicle
ATLAS V 551
Launch site
Air Force Eastern Test Range (AFETR)
Object type
Payload
Rocket body
Debris
Shape & HBR
Box + 2 Pan, 3.4 m
Radar Cross Section
2.326 m², Large (>1 m²)

Expand to show TLE details & history
Last TLE update: 1 day ago

TLE from 1 day ago
0 KUIPER-00034
1 63747U 25088Z   25348.37654119 -.00003525  00000-0 -43343-3 0  9995
2 63747  51.9015 106.3639 0002160 178.3287 181.7683 14.79940606 35179
Epoch: 2025-12-14T09:02Z
TLE epoch observation values (Epoch: 2025-12-14T09:02:13.158Z)
Latitude
-0.00003°
Longitude
-112.48129°
Altitude
631.771 km
Speed
7.543 km/s
True Right ascension
07h 05m 27s
True Declination
0° 00' 00"
Sunlit
Object was in full shadow at epoch
Visualization orbit readout
Latitude
Unknown
Longitude
Unknown
Altitude
Unknown
Speed
Unknown
Apparent Right ascension
Unknown
Apparent Declination
Unknown
Sunlit
N/A
Visualization observer readout
Local Sidereal Time
15:08:17
Azimuth
Unknown
Elevation
Unknown
Doppler factor
Unknown
Orbital elements
Apogee altitude
631.476 km
Perigee altitude
628.449 km
Semi-major axis
7,008.1 km
Eccentricity
0.00022
Inclination
51.9015°
RAAN
106.3639°
Arg. of periapsis
178.3287°
True anomaly
181.76754°
Mean anomaly
181.7683°
Eccentric anomaly
181.76792°
Mean motion
3.6995 °/min
Orbital period
97.31 mins
BSTAR
-0.00043343
Loading maneuver chart data...
Computing Atmospheric mass density...
Loading historical data...
Loading historical data...
Loading historical data...
Loading historical data...
Loading historical data...
Loading historical data...
Loading historical data...

Documentation

Showing up to 5 results
|